• In Hungary
  • List of Countries
  • For 7 days
  • Water Temperature
  • Satellite Maps
  • Weather Map
  • News
  • Weather Widgets
  • user-avatar
    Login

    Hourly Weather Elbasan

    Today, 16 January, Tuesday

    Time Temperature Precipitation Wind Pressure Humidity
    00:00 +7°C° 0.4 mm 2 mps 738 mmHg 93%
    01:00 +7°C° 0 mm 2 mps 738 mmHg 93%
    02:00 +7°C° 0.4 mm 2 mps 738 mmHg 93%
    03:00 +7°C° 0.4 mm 2 mps 737 mmHg 94%
    04:00 +7°C° 0.4 mm 2 mps 737 mmHg 94%
    05:00 +7°C° 0.3 mm 2 mps 737 mmHg 94%
    06:00 +7°C° 0.3 mm 2 mps 737 mmHg 94%
    07:00 +7°C° 0 mm 2 mps 736 mmHg 94%
    08:00 +7°C° 0.2 mm 3 mps 736 mmHg 91%
    09:00 +8°C° 0.2 mm 3 mps 736 mmHg 88%
    10:00 +8°C° 0.2 mm 4 mps 736 mmHg 84%
    11:00 +8°C° 0.4 mm 4 mps 735 mmHg 82%
    12:00 +10°C° 0.4 mm 4 mps 735 mmHg 80%
    13:00 +10°C° 0.4 mm 4 mps 734 mmHg 78%
    14:00 +8°C° 0.3 mm 4 mps 734 mmHg 81%
    15:00 +8°C° 0.3 mm 4 mps 733 mmHg 83%
    16:00 +9°C° 0.3 mm 3 mps 733 mmHg 85%
    17:00 +8°C° 0.4 mm 3 mps 733 mmHg 87%
    18:00 +8°C° 0.4 mm 3 mps 733 mmHg 89%
    19:00 +8°C° 0.4 mm 3 mps 733 mmHg 91%
    20:00 +8°C° 0.4 mm 3 mps 733 mmHg 91%
    21:00 +8°C° 0.4 mm 3 mps 732 mmHg 91%
    22:00 +7°C° 0.4 mm 4 mps 732 mmHg 91%
    23:00 +7°C° 0.4 mm 4 mps 732 mmHg 91%

    Tomorrow, 17 January, Wednesday

    Time Temperature Precipitation Wind Pressure Humidity
    00:00 +7°C° 0.4 mm 4 mps 732 mmHg 92%
    01:00 +7°C° 0.4 mm 4 mps 732 mmHg 92%
    02:00 +7°C° 0.2 mm 4 mps 731 mmHg 92%
    03:00 +7°C° 0.2 mm 4 mps 731 mmHg 92%
    04:00 +7°C° 0.2 mm 4 mps 730 mmHg 92%
    05:00 +7°C° 0.3 mm 4 mps 730 mmHg 91%
    06:00 +8°C° 0.3 mm 4 mps 729 mmHg 91%
    07:00 +8°C° 0.3 mm 5 mps 729 mmHg 91%
    08:00 +8°C° 0.5 mm 6 mps 728 mmHg 90%
    09:00 +9°C° 0.5 mm 6 mps 728 mmHg 89%
    10:00 +9°C° 0.5 mm 7 mps 728 mmHg 88%
    11:00 +10°C° 0.9 mm 8 mps 727 mmHg 87%
    12:00 +10°C° 0.9 mm 9 mps 726 mmHg 86%
    13:00 +9°C° 0.9 mm 10 mps 725 mmHg 86%
    14:00 +9°C° 1.7 mm 10 mps 724 mmHg 86%
    15:00 +9°C° 1.7 mm 10 mps 724 mmHg 85%
    16:00 +9°C° 1.7 mm 10 mps 723 mmHg 85%
    17:00 +8°C° 1.9 mm 10 mps 723 mmHg 86%
    18:00 +7°C° 1.9 mm 9 mps 723 mmHg 86%
    19:00 +6°C° 1.9 mm 9 mps 723 mmHg 87%
    20:00 +6°C° 1 mm 9 mps 724 mmHg 84%
    21:00 +5°C° 1 mm 9 mps 725 mmHg 81%
    22:00 +5°C° 1 mm 9 mps 726 mmHg 78%
    23:00 +4°C° 0.3 mm 8 mps 727 mmHg 79%

    Day after tomorrow, 18 January, Thursday

    Time Temperature Precipitation Wind Pressure Humidity
    00:00 +2°C° 0.3 mm 8 mps 728 mmHg 79%
    01:00 +2°C° 0.3 mm 7 mps 729 mmHg 80%
    02:00 0°C° 0.1 mm 7 mps 730 mmHg 79%
    03:00 0°C° 0.1 mm 7 mps 731 mmHg 78%
    04:00 -1°C° 0.1 mm 7 mps 732 mmHg 77%
    05:00 -1°C° 0 mm 5 mps 733 mmHg 77%
    06:00 -2°C° 0 mm 4 mps 734 mmHg 76%
    07:00 -1°C° 0 mm 3 mps 735 mmHg 75%
    08:00 0°C° 0 mm 3 mps 735 mmHg 67%
    09:00 +2°C° 0 mm 3 mps 736 mmHg 58%
    10:00 +4°C° 0 mm 3 mps 737 mmHg 49%
    11:00 +5°C° 0 mm 4 mps 737 mmHg 48%
    12:00 +5°C° 0 mm 4 mps 737 mmHg 47%
    13:00 +6°C° 0 mm 5 mps 737 mmHg 46%
    14:00 +5°C° 0 mm 4 mps 737 mmHg 51%
    15:00 +5°C° 0 mm 3 mps 737 mmHg 55%
    16:00 +5°C° 0 mm 2 mps 737 mmHg 59%
    17:00 +5°C° 0 mm 2 mps 738 mmHg 60%
    18:00 +4°C° 0 mm 2 mps 738 mmHg 61%
    19:00 +3°C° 0 mm 2 mps 738 mmHg 62%
    20:00 +3°C° 0 mm 2 mps 738 mmHg 64%
    21:00 +3°C° 0 mm 2 mps 738 mmHg 66%
    22:00 +2°C° 0 mm 3 mps 738 mmHg 68%
    23:00 +2°C° 0 mm 3 mps 738 mmHg 70%

    19 January, Friday

    Time Temperature Precipitation Wind Pressure Humidity
    00:00 +2°C° 0 mm 3 mps 738 mmHg 72%
    01:00 +2°C° 0 mm 3 mps 737 mmHg 74%
    02:00 +2°C° 0 mm 3 mps 737 mmHg 74%
    03:00 +2°C° 0 mm 3 mps 736 mmHg 73%
    04:00 +2°C° 0 mm 3 mps 736 mmHg 73%
    05:00 +2°C° 0 mm 3 mps 736 mmHg 73%
    06:00 +2°C° 0 mm 3 mps 736 mmHg 73%
    07:00 +3°C° 0 mm 3 mps 735 mmHg 73%
    08:00 +4°C° 0 mm 3 mps 735 mmHg 75%
    09:00 +5°C° 0 mm 3 mps 735 mmHg 77%
    10:00 +7°C° 0 mm 3 mps 735 mmHg 78%
    11:00 +8°C° 0 mm 3 mps 735 mmHg 78%
    12:00 +9°C° 0 mm 3 mps 734 mmHg 78%
    13:00 +10°C° 0 mm 3 mps 734 mmHg 78%
    14:00 +9°C° 0 mm 3 mps 734 mmHg 80%
    15:00 +9°C° 0 mm 3 mps 734 mmHg 83%
    16:00 +9°C° 0 mm 3 mps 733 mmHg 86%
    17:00 +8°C° 0 mm 3 mps 733 mmHg 87%
    18:00 +7°C° 0 mm 3 mps 733 mmHg 88%
    19:00 +5°C° 0 mm 3 mps 733 mmHg 90%
    20:00 +5°C° 0 mm 4 mps 733 mmHg 90%
    21:00 +5°C° 0 mm 4 mps 733 mmHg 89%
    22:00 +5°C° 0 mm 4 mps 733 mmHg 89%
    23:00 +5°C° 0 mm 4 mps 732 mmHg 89%

    20 January, Saturday

    Time Temperature Precipitation Wind Pressure Humidity
    00:00 +5°C° 0 mm 4 mps 732 mmHg 89%
    01:00 +5°C° 0 mm 4 mps 732 mmHg 88%
    02:00 +6°C° 0.1 mm 4 mps 731 mmHg 89%
    03:00 +6°C° 0.1 mm 4 mps 731 mmHg 89%
    04:00 +6°C° 0.1 mm 4 mps 730 mmHg 90%
    05:00 +6°C° 0.2 mm 4 mps 730 mmHg 90%
    06:00 +6°C° 0.2 mm 4 mps 730 mmHg 90%
    07:00 +6°C° 0.2 mm 5 mps 729 mmHg 90%
    08:00 +7°C° 0.2 mm 5 mps 729 mmHg 88%
    09:00 +8°C° 0.2 mm 5 mps 729 mmHg 86%
    10:00 +9°C° 0.2 mm 6 mps 728 mmHg 84%
    11:00 +10°C° 0.6 mm 6 mps 728 mmHg 83%
    12:00 +10°C° 0.6 mm 6 mps 727 mmHg 82%
    13:00 +10°C° 0.6 mm 6 mps 726 mmHg 81%
    14:00 +10°C° 1.3 mm 6 mps 726 mmHg 85%
    15:00 +9°C° 1.3 mm 5 mps 725 mmHg 88%
    16:00 +8°C° 1.3 mm 4 mps 725 mmHg 92%
    17:00 +8°C° 2.8 mm 4 mps 725 mmHg 93%
    18:00 +9°C° 2.8 mm 3 mps 725 mmHg 94%
    19:00 +8°C° 2.8 mm 3 mps 724 mmHg 95%
    20:00 +8°C° 3.3 mm 3 mps 724 mmHg 96%
    21:00 +8°C° 3.3 mm 2 mps 724 mmHg 96%
    22:00 +7°C° 3.3 mm 2 mps 724 mmHg 97%
    23:00 +7°C° 1.7 mm 2 mps 723 mmHg 95%

    21 January, Sunday

    Time Temperature Precipitation Wind Pressure Humidity
    00:00 +6°C° 1.7 mm 2 mps 722 mmHg 93%
    01:00 +6°C° 1.7 mm 2 mps 722 mmHg 92%
    02:00 +6°C° 1.2 mm 2 mps 721 mmHg 91%
    03:00 +5°C° 1.2 mm 2 mps 721 mmHg 91%
    04:00 +6°C° 1.2 mm 1 mps 720 mmHg 90%
    05:00 +5°C° 1.3 mm 2 mps 720 mmHg 91%
    06:00 +5°C° 1.3 mm 2 mps 719 mmHg 92%
    07:00 +4°C° 1.3 mm 3 mps 719 mmHg 92%
    08:00 +4°C° 1.6 mm 3 mps 719 mmHg 92%
    09:00 +4°C° 1.6 mm 4 mps 719 mmHg 91%
    10:00 +3°C° 1.6 mm 5 mps 719 mmHg 91%
    11:00 +3°C° 0.6 mm 5 mps 719 mmHg 90%
    12:00 +3°C° 0.6 mm 5 mps 719 mmHg 88%
    13:00 +3°C° 0.6 mm 6 mps 718 mmHg 87%
    14:00 +3°C° 0.6 mm 5 mps 719 mmHg 87%
    15:00 +2°C° 0.6 mm 5 mps 719 mmHg 87%
    16:00 +3°C° 0.6 mm 4 mps 720 mmHg 87%
    17:00 +1°C° 0.3 mm 4 mps 720 mmHg 87%
    18:00 +2°C° 0.3 mm 3 mps 721 mmHg 88%
    19:00 +1°C° 0.3 mm 3 mps 721 mmHg 88%
    20:00 +1°C° 0.1 mm 3 mps 722 mmHg 87%
    21:00 +1°C° 0.1 mm 2 mps 722 mmHg 87%
    22:00 +1°C° 0.1 mm 2 mps 722 mmHg 86%
    23:00 -1°C° 0 mm 2 mps 723 mmHg 86%
    Show more